FW3227 Weather Reports


Display with metric or nautical units.
time (UTC)temp
F
wind
direction
speed
MPH
gust
MPH
rain 1hr
in
rain 24hr
in
rain mn
in
humidity
%
barometer
mb
20260903205518 89 189 0.0 0.0 0.00 0.00 0.00 18 1002.1
20260903205017 89 189 0.0 4.0 0.00 0.00 0.00 19 1002.2
20260903204517 89 188 0.0 9.0 0.00 0.00 0.00 19 1002.2
20260903204016 89 197 0.0 13.0 0.00 0.00 0.00 19 1002.2
20260903203517 89 191 3.0 13.0 0.00 0.00 0.00 18 1002.5
20260903203022 89 250 0.0 12.0 0.00 0.00 0.00 17 1002.4
20260903202514 89 164 0.0 8.0 0.00 0.00 0.00 21 1002.5
20260903202013 89 247 2.0 8.0 0.00 0.00 0.00 20 1002.5
20260903201515 88 218 0.0 8.0 0.00 0.00 0.00 18 1002.6
20260903201012 89 178 0.0 8.0 0.00 0.00 0.00 18 1002.5
20260903200513 89 193 1.0 8.0 0.00 0.00 0.00 20 1002.7
20260903200032 88 192 0.0 2.0 0.00 0.00 0.00 19 1002.8
20260903195509 88 200 0.0 6.0 0.00 0.00 0.00 20 1002.9
20260903195009 88 245 0.0 13.0 0.00 0.00 0.00 21 1002.8
20260903194527 87 245 3.0 13.0 0.00 0.00 0.00 20 1003.0
20260903194007 87 166 3.0 10.0 0.00 0.00 0.00 21 1003.0
20260903193507 87 158 0.0 12.0 0.00 0.00 0.00 21 1003.2
20260903193006 87 155 4.0 12.0 0.00 0.00 0.00 22 1003.2
20260903192505 88 173 1.0 11.0 0.00 0.00 0.00 21 1003.2
20260903192004 88 191 0.0 0.0 0.00 0.00 0.00 22 1003.4
20260903191505 88 191 0.0 0.0 0.00 0.00 0.00 23 1003.5
20260903191003 87 191 0.0 2.0 0.00 0.00 0.00 23 1003.7
20260903190502 87 190 0.0 2.0 0.00 0.00 0.00 23 1003.7
20260903190002 87 173 0.0 0.0 0.00 0.00 0.00 23 1003.8
20260903185500 87 173 0.0 6.0 0.00 0.00 0.00 21 1003.9
20260903185100 87 173 0.0 6.0 0.00 0.00 0.00 21 1004.0
20260903184604 87 173 1.0 12.0 0.00 0.00 0.00 22 1004.1
20260903184101 87 183 0.0 9.0 0.00 0.00 0.00 24 1004.2
20260903183558 87 228 0.0 0.0 0.00 0.00 0.00 21 1004.2
20260903183117 87 228 0.0 0.0 0.00 0.00 0.00 20 1004.3
20260903182557 87 228 0.0 9.0 0.00 0.00 0.00 23 1004.5
20260903182059 87 228 1.0 9.0 0.00 0.00 0.00 24 1004.5
20260903181614 86 226 0.0 0.0 0.00 0.00 0.00 23 1004.6
20260903181052 86 228 0.0 0.0 0.00 0.00 0.00 21 1004.7
20260903180551 85 228 0.0 0.0 0.00 0.00 0.00 24 1004.8
20260903180049 85 228 0.0 0.0 0.00 0.00 0.00 21 1004.9
20260903175549 85 228 0.0 4.0 0.00 0.00 0.00 24 1004.9
20260903175053 85 228 0.0 4.0 0.00 0.00 0.00 25 1005.0
20260903174548 85 203 0.0 0.0 0.00 0.00 0.00 26 1004.9
20260903174047 84 203 0.0 5.0 0.00 0.00 0.00 24 1005.0
20260903173544 84 189 0.0 1.0 0.00 0.00 0.00 25 1005.0
20260903173043 84 179 0.0 0.0 0.00 0.00 0.00 24 1005.0
20260903172543 84 177 0.0 6.0 0.00 0.00 0.00 27 1005.0
20260903172042 84 185 1.0 5.0 0.00 0.00 0.00 26 1005.0
20260903171542 83 250 0.0 11.0 0.00 0.00 0.00 27 1005.0
20260903171040 83 250 3.0 11.0 0.00 0.00 0.00 28 1005.0
20260903170539 83 210 0.0 8.0 0.00 0.00 0.00 29 1005.0
20260903170039 83 210 0.0 5.0 0.00 0.00 0.00 26 1005.1
20260903165538 82 212 0.0 0.0 0.00 0.00 0.00 28 1005.1
20260903165040 82 224 0.0 0.0 0.00 0.00 0.00 24 1005.1
20260903164534 82 225 0.0 0.0 0.00 0.00 0.00 27 1005.2
20260903164036 82 225 0.0 2.0 0.00 0.00 0.00 28 1005.1
20260903163533 82 225 0.0 9.0 0.00 0.00 0.00 27 1005.0
20260903163031 81 249 0.0 10.0 0.00 0.00 0.00 30 1005.0
20260903162530 81 249 0.0 11.0 0.00 0.00 0.00 30 1005.0
20260903162028 80 247 0.0 11.0 0.00 0.00 0.00 31 1005.0
20260903161534 80 245 2.0 9.0 0.00 0.00 0.00 29 1005.0
20260903161025 80 244 0.0 9.0 0.00 0.00 0.00 31 1004.9
20260903160524 79 243 1.0 9.0 0.00 0.00 0.00 30 1005.0
20260903160023 79 237 0.0 8.0 0.00 0.00 0.00 35 1005.1
20260903155525 79 230 0.0 7.0 0.00 0.00 0.00 33 1005.1
20260903155023 78 202 0.0 7.0 0.00 0.00 0.00 31 1005.1
20260903154519 78 221 0.0 6.0 0.00 0.00 0.00 33 1005.1
20260903154021 78 243 0.0 0.0 0.00 0.00 0.00 34 1005.1
20260903153515 77 245 0.0 6.0 0.00 0.00 0.00 34 1005.1
20260903153013 77 246 0.0 10.0 0.00 0.00 0.00 34 1005.1
20260903152513 76 243 1.0 10.0 0.00 0.00 0.00 37 1005.1
20260903152011 76 225 0.0 6.0 0.00 0.00 0.00 36 1005.2
20260903151510 76 225 0.0 0.0 0.00 0.00 0.00 41 1005.2
20260903151008 75 222 0.0 0.0 0.00 0.00 0.00 41 1005.2
20260903150507 74 222 0.0 0.0 0.00 0.00 0.00 41 1005.4
20260903150006 73 222 0.0 0.0 0.00 0.00 0.00 43 1005.4
20260903145503 73 222 0.0 0.0 0.00 0.00 0.00 43 1005.5
20260903145002 72 222 0.0 0.0 0.00 0.00 0.00 42 1005.5
20260903144501 72 222 0.0 0.0 0.00 0.00 0.00 42 1005.6
20260903144100 71 222 0.0 0.0 0.00 0.00 0.00 46 1005.6
20260903143557 70 222 0.0 0.0 0.00 0.00 0.00 44 1005.7
20260903143056 70 222 0.0 0.0 0.00 0.00 0.00 45 1005.7
20260903142554 69 222 0.0 0.0 0.00 0.00 0.00 46 1005.6
20260903142053 68 222 0.0 0.0 0.00 0.00 0.00 48 1005.7
20260903141552 67 222 0.0 0.0 0.00 0.00 0.00 49 1005.7
20260903141051 66 222 0.0 0.0 0.00 0.00 0.00 46 1005.7
20260903140549 65 222 0.0 0.0 0.00 0.00 0.00 49 1005.7
20260903140048 64 222 0.0 0.0 0.00 0.00 0.00 51 1005.6
20260903135548 63 222 0.0 0.0 0.00 0.00 0.00 58 1005.6
20260903135045 61 222 0.0 0.0 0.00 0.00 0.00 59 1005.6
20260903134553 60 222 0.0 0.0 0.00 0.00 0.00 61 1005.5
20260903134042 59 222 0.0 0.0 0.00 0.00 0.00 66 1005.4
20260903133540 57 222 0.0 0.0 0.00 0.00 0.00 71 1005.4
20260903133047 56 222 0.0 0.0 0.00 0.00 0.00 73 1005.3
20260903132537 55 222 0.0 0.0 0.00 0.00 0.00 71 1005.2
20260903132037 54 223 0.0 0.0 0.00 0.00 0.00 69 1005.2
20260903131539 53 223 0.0 0.0 0.00 0.00 0.00 71 1005.1
20260903131034 53 223 0.0 0.0 0.00 0.00 0.00 72 1005.2
20260903130533 52 223 0.0 0.0 0.00 0.00 0.00 75 1005.2
20260903130031 52 223 0.0 0.0 0.00 0.00 0.00 74 1005.1
20260903125529 52 223 0.0 0.0 0.00 0.00 0.00 73 1005.0
20260903125028 52 223 0.0 0.0 0.00 0.00 0.00 73 1004.9
20260903124547 52 223 0.0 0.0 0.00 0.00 0.00 73 1004.9
20260903124026 52 223 0.0 0.0 0.00 0.00 0.00 74 1004.9
20260903123524 52 223 0.0 0.0 0.00 0.00 0.00 73 1004.9
20260903123023 52 223 0.0 0.0 0.00 0.00 0.00 75 1004.8
20260903122523 52 223 0.0 0.0 0.00 0.00 0.00 77 1004.6
20260903122023 52 223 0.0 0.0 0.00 0.00 0.00 77 1004.6
20260903121622 52 265 0.0 0.0 0.00 0.00 0.00 77 1004.4
20260903121026 51 265 0.0 0.0 0.00 0.00 0.00 76 1004.4
20260903120524 51 265 0.0 0.0 0.00 0.00 0.00 77 1004.3
20260903120024 51 265 0.0 0.0 0.00 0.00 0.00 78 1004.4
20260903115521 51 265 0.0 0.0 0.00 0.00 0.00 77 1004.4
20260903115021 51 265 0.0 0.0 0.00 0.00 0.00 78 1004.3
20260903114621 51 265 0.0 0.0 0.00 0.00 0.00 79 1004.3
20260903114020 51 265 0.0 0.0 0.00 0.00 0.00 79 1004.3
20260903113519 51 265 0.0 0.0 0.00 0.00 0.00 79 1004.4
20260903113022 51 265 0.0 0.0 0.00 0.00 0.00 78 1004.4
20260903112521 52 265 0.0 0.0 0.00 0.00 0.00 78 1004.4
20260903112018 52 265 0.0 0.0 0.00 0.00 0.00 77 1004.3
20260903111517 52 265 0.0 0.0 0.00 0.00 0.00 76 1004.3
20260903111017 52 265 0.0 0.0 0.00 0.00 0.00 77 1004.2
20260903110517 52 265 0.0 0.0 0.00 0.00 0.00 76 1004.3
20260903110016 52 265 0.0 0.0 0.00 0.00 0.00 76 1004.3
20260903105515 53 265 0.0 0.0 0.00 0.00 0.00 77 1004.3
20260903105015 53 265 0.0 0.0 0.00 0.00 0.00 76 1004.3
20260903104522 53 265 0.0 0.0 0.00 0.00 0.00 76 1004.2
20260903104016 53 265 0.0 0.0 0.00 0.00 0.00 77 1004.2
20260903103513 53 265 0.0 0.0 0.00 0.00 0.00 77 1004.3
20260903103013 53 265 0.0 0.0 0.00 0.00 0.00 76 1004.2
20260903102513 53 265 0.0 0.0 0.00 0.00 0.00 78 1004.2
20260903102015 53 265 0.0 0.0 0.00 0.00 0.00 78 1004.2
20260903101518 53 265 0.0 0.0 0.00 0.00 0.00 77 1004.2
20260903101013 53 265 0.0 0.0 0.00 0.00 0.00 77 1004.2
20260903100512 53 265 0.0 0.0 0.00 0.00 0.00 77 1004.1
20260903100021 53 265 0.0 0.0 0.00 0.00 0.00 77 1004.2
20260903095514 53 265 0.0 0.0 0.00 0.00 0.00 79 1004.3
20260903095015 53 265 0.0 0.0 0.00 0.00 0.00 78 1004.2
20260903094513 53 265 0.0 0.0 0.00 0.00 0.00 78 1004.2
20260903094011 53 265 0.0 0.0 0.00 0.00 0.00 79 1004.3
20260903093511 53 265 0.0 0.0 0.00 0.00 0.00 78 1004.3
20260903093010 53 265 0.0 0.0 0.00 0.00 0.00 77 1004.2
20260903092510 53 265 0.0 0.0 0.00 0.00 0.00 76 1004.3
20260903092009 54 265 0.0 0.0 0.00 0.00 0.00 75 1004.4
20260903091511 54 265 0.0 0.0 0.00 0.00 0.00 74 1004.4
20260903091006 54 265 0.0 0.0 0.00 0.00 0.00 74 1004.4
20260903090506 55 265 0.0 0.0 0.00 0.00 0.00 74 1004.4
20260903090005 55 265 0.0 0.0 0.00 0.00 0.00 72 1004.4
20260903085502 55 265 0.0 0.0 0.00 0.00 0.00 72 1004.4
20260903085004 56 265 0.0 0.0 0.00 0.00 0.00 72 1004.2
20260903084501 56 265 0.0 0.0 0.00 0.00 0.00 73 1004.2
20260903084003 56 265 0.0 0.0 0.00 0.00 0.00 72 1004.1
20260903083600 56 265 0.0 0.0 0.00 0.00 0.00 72 1004.1
20260903083107 56 265 0.0 0.0 0.00 0.00 0.00 73 1004.0
20260903082559 56 265 0.0 0.0 0.00 0.00 0.00 74 1004.1
20260903082059 56 265 0.0 0.0 0.00 0.00 0.00 73 1004.1
20260903081559 56 265 0.0 0.0 0.00 0.00 0.00 74 1004.2
20260903081100 56 265 0.0 0.0 0.00 0.00 0.00 74 1004.3
20260903080558 56 265 0.0 0.0 0.00 0.00 0.00 73 1004.3
20260903080101 56 265 0.0 0.0 0.00 0.00 0.00 74 1004.3
20260903075558 56 265 0.0 0.0 0.00 0.00 0.00 74 1004.4
20260903075057 56 265 0.0 0.0 0.00 0.00 0.00 74 1004.3
20260903074558 56 265 0.0 0.0 0.00 0.00 0.00 73 1004.3
20260903074055 56 265 0.0 0.0 0.00 0.00 0.00 73 1004.3
20260903073554 57 265 0.0 0.0 0.00 0.00 0.00 73 1004.4
20260903073111 57 265 0.0 0.0 0.00 0.00 0.00 73 1004.6
20260903072552 57 265 0.0 0.0 0.00 0.00 0.00 72 1004.5
20260903072051 57 265 0.0 0.0 0.00 0.00 0.00 71 1004.5
20260903071551 58 265 0.0 0.0 0.00 0.00 0.00 72 1004.5
20260903071050 58 265 0.0 0.0 0.00 0.00 0.00 71 1004.5
20260903070551 58 265 0.0 0.0 0.00 0.00 0.00 71 1004.6
20260903070049 58 265 0.0 0.0 0.00 0.00 0.00 72 1004.6
20260903065548 58 265 0.0 0.0 0.00 0.00 0.00 72 1004.6
20260903065047 58 265 0.0 0.0 0.00 0.00 0.00 72 1004.5
20260903064554 58 265 0.0 0.0 0.00 0.00 0.00 72 1004.5
20260903064047 58 265 0.0 0.0 0.00 0.00 0.00 72 1004.4
20260903063546 58 265 0.0 0.0 0.00 0.00 0.00 72 1004.4
20260903063046 58 265 0.0 0.0 0.00 0.00 0.00 71 1004.6
20260903062544 58 265 0.0 0.0 0.00 0.00 0.00 70 1004.6
20260903062043 59 265 0.0 0.0 0.00 0.00 0.00 69 1004.6
20260903061541 59 265 0.0 0.0 0.00 0.00 0.00 69 1004.6
20260903061040 60 265 0.0 0.0 0.00 0.00 0.00 67 1004.4
20260903060539 60 265 0.0 0.0 0.00 0.00 0.00 66 1004.4
20260903060038 60 265 0.0 0.0 0.00 0.00 0.00 65 1004.4
20260903055538 61 265 0.0 0.0 0.00 0.00 0.00 65 1004.3
20260903055038 61 265 0.0 0.0 0.00 0.00 0.00 65 1004.2
20260903054537 61 265 0.0 0.0 0.00 0.00 0.00 65 1004.1
20260903054037 62 265 0.0 0.0 0.00 0.00 0.00 64 1004.2
20260903053536 62 265 0.0 0.0 0.00 0.00 0.00 63 1004.2
20260903053036 62 265 0.0 0.0 0.00 0.00 0.00 63 1004.5
20260903052536 63 265 0.0 0.0 0.00 0.00 0.00 61 1004.5
20260903052036 63 265 0.0 0.0 0.00 0.00 0.00 61 1004.7
20260903051536 64 265 0.0 0.0 0.00 0.00 0.00 61 1004.6
20260903051035 64 265 0.0 0.0 0.00 0.00 0.00 60 1004.4
20260903050539 64 265 0.0 0.0 0.00 0.00 0.00 59 1004.3
20260903050036 65 265 0.0 0.0 0.00 0.00 0.00 59 1004.3
20260903045536 65 265 0.0 0.0 0.00 0.00 0.00 59 1004.5
20260903045037 66 265 0.0 0.0 0.00 0.00 0.00 58 1004.6
20260903044536 66 265 0.0 0.0 0.00 0.00 0.00 56 1004.5
20260903044037 66 265 0.0 0.0 0.00 0.00 0.00 55 1004.6
20260903043534 67 265 0.0 0.0 0.00 0.00 0.00 55 1004.6
20260903043043 67 265 0.0 0.0 0.00 0.00 0.00 54 1004.3
20260903042534 67 265 0.0 0.0 0.00 0.00 0.00 53 1004.3
20260903042034 68 265 0.0 0.0 0.00 0.00 0.00 53 1004.3
20260903041536 68 265 0.0 0.0 0.00 0.00 0.00 52 1004.4
20260903041033 68 264 0.0 0.0 0.00 0.00 0.00 51 1004.6
20260903040533 68 264 0.0 0.0 0.00 0.00 0.00 51 1004.4
20260903040135 69 264 0.0 0.0 0.00 0.00 0.00 50 1004.3
20260903035533 69 264 0.0 0.0 0.00 0.00 0.00 49 1004.1
20260903035033 69 264 0.0 0.0 0.00 0.00 0.00 49 1004.1
20260903034533 70 264 0.0 0.0 0.00 0.00 0.00 48 1004.1
20260903034032 70 264 0.0 0.0 0.00 0.00 0.00 47 1004.1
20260903033533 70 264 0.0 0.0 0.00 0.00 0.00 47 1004.2
20260903033032 70 264 0.0 0.0 0.00 0.00 0.00 46 1004.2
20260903032532 71 264 0.0 0.0 0.00 0.00 0.00 45 1003.9
20260903032035 71 269 0.0 1.0 0.00 0.00 0.00 44 1003.9
20260903031542 72 269 0.0 7.0 0.00 0.00 0.00 43 1004.0
20260903031031 72 264 0.0 0.0 0.00 0.00 0.00 42 1004.0
20260903030533 73 264 0.0 1.0 0.00 0.00 0.00 41 1004.0
20260903030032 73 264 0.0 7.0 0.00 0.00 0.00 40 1004.0
20260903025534 73 264 0.0 7.0 0.00 0.00 0.00 40 1004.1
20260903025031 74 264 0.0 15.0 0.00 0.00 0.00 40 1004.3
20260903024532 74 264 2.0 15.0 0.00 0.00 0.00 39 1004.1
20260903024031 74 277 2.0 11.0 0.00 0.00 0.00 39 1003.4
20260903023534 74 287 0.0 5.0 0.00 0.00 0.00 38 1003.0
20260903023034 74 314 0.0 5.0 0.00 0.00 0.00 38 1002.8
20260903022530 75 281 0.0 11.0 0.00 0.00 0.00 38 1002.6
20260903022032 75 289 2.0 11.0 0.00 0.00 0.00 38 1002.4
20260903021530 75 288 0.0 5.0 0.00 0.00 0.00 38 1002.6
20260903021030 75 289 0.0 0.0 0.00 0.00 0.00 38 1002.9
20260903020530 75 290 0.0 0.0 0.00 0.00 0.00 39 1002.8
20260903020038 75 291 0.0 1.0 0.00 0.00 0.00 38 1002.7
20260903015530 75 291 0.0 2.0 0.00 0.00 0.00 38 1002.3
20260903015029 75 293 0.0 2.0 0.00 0.00 0.00 38 1001.8
20260903014529 75 11 0.0 2.0 0.00 0.00 0.00 38 1001.7
20260903014033 76 37 0.0 1.0 0.00 0.00 0.00 38 1001.6
20260903013532 76 159 0.0 1.0 0.00 0.00 0.00 38 1001.6
20260903013029 77 159 0.0 1.0 0.00 0.00 0.00 37 1001.7
20260903012530 77 147 0.0 1.0 0.00 0.00 0.00 36 1001.5
20260903012028 78 139 0.0 3.0 0.00 0.00 0.00 35 1001.5
20260903011529 78 139 0.0 3.0 0.00 0.00 0.00 35 1001.5
20260903011029 78 139 0.0 3.0 0.00 0.00 0.00 35 1001.8
20260903010527 79 139 0.0 6.0 0.00 0.00 0.00 34 1001.8
20260903010027 79 140 0.0 6.0 0.00 0.00 0.00 33 1001.9
20260903005527 79 140 0.0 8.0 0.00 0.00 0.00 33 1001.9
20260903005026 79 140 1.0 9.0 0.00 0.00 0.00 32 1001.9
20260903004529 79 135 1.0 9.0 0.00 0.00 0.00 32 1001.9
20260903004026 80 139 2.0 10.0 0.00 0.00 0.00 31 1001.8
20260903003526 80 138 3.0 10.0 0.00 0.00 0.00 32 1001.8
20260903003026 80 146 2.0 10.0 0.00 0.00 0.00 31 1001.8
20260903002530 80 148 3.0 9.0 0.00 0.00 0.00 31 1001.8
20260903002025 80 141 0.0 9.0 0.00 0.00 0.00 32 1001.8
20260903001525 80 140 1.0 10.0 0.00 0.00 0.00 31 1001.8
20260903001024 81 140 4.0 12.0 0.00 0.00 0.00 30 1001.7
20260903000524 81 139 3.0 12.0 0.00 0.00 0.00 30 1001.8
20260903000027 81 146 5.0 12.0 0.00 0.00 0.00 30 1001.7
20260902235524 81 145 3.0 18.0 0.00 0.00 0.00 31 1001.7
20260902235023 81 150 7.0 18.0 0.00 0.00 0.00 30 1001.8
20260902234522 82 141 6.0 13.0 0.00 0.00 0.00 30 1001.8
20260902234022 82 141 4.0 15.0 0.00 0.00 0.00 30 1001.8
20260902233521 82 154 6.0 19.0 0.00 0.00 0.00 30 1001.8
20260902233021 82 144 4.0 19.0 0.00 0.00 0.00 30 1001.8
20260902232521 82 141 7.0 16.0 0.00 0.00 0.00 30 1001.9
20260902232020 82 146 5.0 17.0 0.00 0.00 0.00 31 1001.9
20260902231523 82 145 3.0 17.0 0.00 0.00 0.00 30 1002.0
20260902231024 82 140 3.0 22.0 0.00 0.00 0.00 29 1002.0
20260902230519 82 134 9.0 22.0 0.00 0.00 0.00 30 1002.0
20260902230019 82 142 1.0 11.0 0.00 0.00 0.00 29 1002.0
20260902225516 82 143 3.0 16.0 0.00 0.00 0.00 29 1002.1
20260902225016 82 148 8.0 16.0 0.00 0.00 0.00 29 1002.1
20260902224516 82 139 5.0 15.0 0.00 0.00 0.00 30 1002.2
20260902224017 82 147 2.0 15.0 0.00 0.00 0.00 30 1002.3
20260902223515 82 148 3.0 15.0 0.00 0.00 0.00 29 1002.3
20260902223021 83 145 1.0 18.0 0.00 0.00 0.00 30 1002.3
20260902222514 83 150 6.0 18.0 0.00 0.00 0.00 30 1002.4
20260902222015 83 135 4.0 16.0 0.00 0.00 0.00 28 1002.5
20260902221518 83 153 2.0 10.0 0.00 0.00 0.00 28 1002.5
20260902221013 83 141 2.0 14.0 0.00 0.00 0.00 28 1002.6
20260902220511 83 142 6.0 15.0 0.00 0.00 0.00 29 1002.7
20260902220011 83 137 4.0 15.0 0.00 0.00 0.00 30 1002.8
20260902215509 83 148 5.0 14.0 0.00 0.00 0.00 29 1002.8
20260902215008 83 150 5.0 14.0 0.00 0.00 0.00 28 1003.0
20260902214509 83 144 6.0 14.0 0.00 0.00 0.00 29 1003.0
20260902214009 84 148 5.0 14.0 0.00 0.00 0.00 31 1003.2
20260902213506 84 142 4.0 15.0 0.00 0.00 0.00 30 1003.3
20260902213006 84 143 4.0 15.0 0.00 0.00 0.00 27 1003.4
20260902212505 84 164 6.0 14.0 0.00 0.00 0.00 28 1003.4
20260902212007 84 157 4.0 14.0 0.00 0.00 0.00 29 1003.5
20260902211505 84 152 6.0 13.0 0.00 0.00 0.00 28 1003.5
20260902211004 85 148 8.0 14.0 0.00 0.00 0.00 28 1003.5
20260902210504 85 161 3.0 14.0 0.00 0.00 0.00 26 1003.8
20260902210006 85 138 2.0 12.0 0.00 0.00 0.00 26 1003.9